Weather Roundup
Issued by NWS

Home | Current Version | Previous Version | Text Only | Print | Product List | Glossary On
Versions: 1 2 3 4 5 6 7 8 9 10 11 12 13 14 15 16 17 18 19 20 21 22 23 24 25 26 27 28 29 30 31 32 33 34 35 36 37 38 39 40 41 42 43 44 45 46 47 48 49 50
159
NZUS93 KARX 280659
HRRWXR

CURRENT HOURLY OBSERVATIONS ACROSS
MUCH OF THE UPPER MISSISSIPPI VALLEY
NATIONAL WEATHER SERVICE LA CROSSE WI
100 AM CST TUE FEB 28 2017


...SOUTHEAST MINNESOTA...


CITY           SKY/WX    TMP DP  RH WIND       PRES   REMARKS
ROCHESTER      CLOUDY    37  32  82 SE15      29.80F WCI  28
ROCHESTER/MAYO FAIR      40  32  74 SE7       29.80F WCI  35
WINONA         CLOUDY    36  32  87 CALM      29.86F
AUSTIN         PTCLDY    39  32  75 SE10      29.77F WCI  32
ALBERT LEA     CLOUDY    39  32  75 SE10      29.76F WCI  32
DODGE CENTER   NOT AVBL
PRESTON        CLOUDY    40  33  77 SE12      29.82F WCI  32
OWATONNA       PTCLDY    39  30  70 SE13      29.76F WCI  32
FARIBAULT      CLOUDY    39  32  75 SE10      29.77F WCI  32
$$

...ELSEWHERE IN MINNESOTA...


CITY           SKY/WX    TMP DP  RH WIND       PRES   REMARKS
MINNEAPOLIS    CLOUDY    38  29  70 SE5       29.79F WCI  34
INTNL FALLS    LGT SNOW  22  16  78 N6        29.89S WCI  14
DULUTH         CLOUDY    25  22  88 E3        29.83F
RED WING       CLOUDY    39  28  65 E5        29.81F
REDWOOD FALLS  CLOUDY    35  29  78 SE7       29.74F WCI  29
MANKATO          N/A     36  30  79 SE9       29.75F WCI  29
WORTHINGTON    CLOUDY    37  30  75 S7        29.71S WCI  32
FAIRMONT       PTCLDY    36  31  82 SE9       29.73F WCI  29
$$

...SOUTHWEST WISCONSIN...


CITY           SKY/WX    TMP DP  RH WIND       PRES   REMARKS
LA CROSSE      CLOUDY    43  34  70 S9        29.86F
PRAIRIE DU CHI RAIN      41  36  83 E6        29.87F
BOSCOBEL       LGT RAIN  40  37  89 NE5       29.88F
LONE ROCK      NOT AVBL
PLATTEVILLE    CLOUDY    41  38  89 E9        29.87F
FORT MC COY    CLOUDY    39  33  77 S9        29.90F WCI  33
CAMP DOUGLAS   MIX PCPN  37  32  81 SE9       29.91F WCI  31
MAUSTON-NEW LI CLOUDY    37  32  83 CALM      29.92S
VIROQUA        CLOUDY    40  36  86 SE7       29.89F WCI  35
WIS DELLS      LGT RAIN  38  34  85 CALM      29.93F
$$

...ELSEWHERE IN WISCONSIN...


CITY           SKY/WX    TMP DP  RH WIND       PRES   REMARKS
MILWAUKEE      CLOUDY    43  36  76 SE10      30.00F
MADISON        CLOUDY    42  34  73 SE3       29.93F
GREEN BAY      CLOUDY    37  33  85 SE7       29.98F WCI  32
EAU CLAIRE     NOT AVBL
BLACK RVR FLS  PTSUNNY   31  28  89 E5        29.89F WCI  26
MEDFORD        PTCLDY    33  28  83 SE8       29.90S WCI  26
WAUSAU         CLOUDY    32  28  85 E7        29.91F WCI  26
WIS RAPIDS     CLOUDY    38  31  76 SE7       29.92F WCI  33
MARSHFIELD     CLOUDY    34  28  79 E7        29.88F WCI  28
RICE LAKE      CLOUDY    34  26  70 SE9       29.87F WCI  27
$$

...NORTHEAST IOWA...


CITY           SKY/WX    TMP DP  RH WIND       PRES   REMARKS
WATERLOO       CLOUDY    44  37  76 SE9       29.78F
DUBUQUE        CLOUDY    43  40  89 SE13      29.84F
DECORAH        CLOUDY    39  37  93 E7        29.83F WCI  34
MASON CITY     CLOUDY    40  35  83 SE14      29.76F WCI  32
CHARLES CITY   CLOUDY    39  39 100 E9        29.82F WCI  33
OELWEIN        CLOUDY    43  39  87 E13       29.81F
$$

...ELSEWHERE IN IOWA...


CITY           SKY/WX    TMP DP  RH WIND       PRES   REMARKS
DES MOINES     CLOUDY    46  32  58 E7        29.74F
IOWA CITY      CLOUDY    48  39  71 E5        29.82F
FORT DODGE     CLOUDY    39  30  70 E17       29.73F WCI  30
MARSHALLTOWN   CLOUDY    40  36  86 E14       29.75F WCI  32
CEDAR RAPIDS   CLOUDY    44  39  82 E9        29.79F
$$

...NORTHERN ILLINOIS...


CITY           SKY/WX    TMP DP  RH WIND       PRES   REMARKS
CHICAGO-OHARE  CLOUDY    48  41  76 E7        29.98F
CHICAGO-MIDWAY DRIZZLE   48  40  73 SE10      29.98F
MOLINE         CLOUDY    51  42  71 S15       29.83F
ROCKFORD       LGT RAIN  46  42  86 E9        29.93F FOG
PEORIA         CLOUDY    51  47  86 S12G23    29.90F
$$

NOTE: "FAIR" INDICATES FEW OR NO CLOUDS BELOW 12,000 FEET WITH NO
SIGNIFICANT WEATHER AND/OR OBSTRUCTIONS TO VISIBILITY. WIND
SPEEDS ARE IN MILES-PER-HOUR.




USA.gov is the U.S. government's official web portal to all federal, state and local government web resources and services.